Погода в Гагарине

Погода в Гагарине : погода сейчас, прогноз погоды и архив. Всё, что Вы хотите узнать о погоде в Гагарине!

Хотите узнать прогноз погоды в Гагарине? Тогда Вам сюда: Погода в Гагарине

Поиск расширенной информации на нашем сайте:

Другие новости

Новости СМИ2

Главная страница сайта

Новости сайта

03.07.2017

Напоминаем, что на нашем специализированном сайте Метеоцентр.Азия вы можете получить высокодетализированные автоматические прогнозы погоды по пунктам России, СНГ и мира в авиационном формате (включающие направление и скорость ветра, видимость, явления погоды, количество и форму облачности, нижнюю и верхнюю границу облачности).

Рекомендуем: Не работает компьютер мастер компьютерная помощь.

Погода в Гагарине - сегодня

Время (UTC), дата Ветер
(°,м/с) 
Видим.   Явления Облачность Т
(°С)
Тd
(°С)
f(%) Тe
(°С)
Pmin
(гПа)
dP
(гПа)
Po
(мм)
O2
(г/м3)
Тmin Tmax R s Состояние
почвы
18 18.01.18 140 (ЮВ) 6000 м  слаб. снег  10/10 210 м 
[St]
-5.1 -6.2 92 -5  1008.5  0.5  738  304    -5.1  0.2     
21 18.01.18 120 (ЮВ) 3000 м  снег  10/10 150 м 
[Frnb|Ns]
-4.5 -5 96 -4  1008.7  0.3  738  303           
00 19.01.18 140 (ЮВ) 2500 м  снег  10/10 120 м 
[Frnb|Ns]
-3.4 -3.8 97 -5  1007.9  -0.6  738  301           
03 19.01.18 150 (ЮВ) 3500 м  снег  10/10 270 м 
[Frnb|Ns]
-2.4 -3.4 93 -4  1006.9  -0.9  737  300  -5.6       
06 19.01.18 150 (ЮВ) 3{11}  9000 м  дымка{снег}  10/10 400 м 
[St]
-3.5 -5.4 87 -6  1008.3  1.3  738  302  -5.1    17  равномерный
сухой снег
100% 
09 19.01.18 130 (ЮВ) 12000 м    10/10 1080 м 
[Sc]
-4.7 -8.6 74 -8  1008.8  0.3  738  304           
12 19.01.18 130 (ЮВ) 12000 м  позёмок  10/10 900 м 
[Sc]
-6 -9.2 78 -10  1009.5  0.5  739  305           
15 19.01.18 130 (ЮВ) 4{11}  8000 м  слаб. снег  10/10 700 м 
[Sc]
-5.9 -8.6 81 -9  1009.9  0.4  739  305      0.6     
18 19.01.18 130 (ЮВ) 8000 м  слаб. снег  10/10 600 м 
[Sc]
-6.5 -8.1 88 -9  1010.6  0.7  740  306    -3.5  0.2     
21 19.01.18 110 (В) 3100 м  снег  10/10 210 м 
[Frnb|Ns]
-7.3 -8.5 91 -9  1011  0.3  740  307           
00 20.01.18 110 (В) 3300 м  снег  10/10 210 м 
[Frnb|Ns]
-7.8 -9 91 -11  1011.1  740  308           
03 20.01.18 110 (В) 5000 м  снег  10/10 210 м 
[Frnb|Ns]
-8.7 -10 90 -12  1010.5  -0.7  739  309  -8.7       
06 20.01.18 110 (В) 7000 м  слаб. снег  10/10 120 м 
[St]
-9.3 -10.7 90 -11  1010  -0.5  739  309  -9.3    15  равномерный
сухой снег
100% 
09 20.01.18 110 (В) 7000 м  слаб. снег  10/10 300 м 
[St]
-8.6 -10.6 85 -10  1009.8  -0.1  739  308           
12 20.01.18 110 (В) 8000 м  слаб. снег  10/10 840 м 
[Sc]
-8.2 -10.4 84 -10  1009.3  -0.4  738  308           
15 20.01.18 110 (В) 8000 м  слаб. снег  10/10 600 м 
[Sc]
-8.3 -10.6 83 -10  1009.4  738  308         
18 20.01.18 070 (В) 7000 м  слаб. снег  10/10 210 м 
[St]
-8.6 -9.9 90 -8  1008.9  -0.5  738  308    -8     
21 20.01.18 тихо ()   7000 м  слаб. снег  10/10 240 м 
[St]
-9 -10.2 91 -9  1009  738  309           
00 21.01.18 070 (В) 6000 м  слаб. снег  10/10 150 м 
[St]
-8.6 -9.9 90 -8  1008.9  0.1  738  308           
03 21.01.18 тихо ()   6000 м  слаб. снег  10/10 120 м 
[St]
-8.6 -9.7 92 -9  1009  0.1  738  308  -9.1       
06 21.01.18 тихо ()   7000 м  слаб. снег  10/10 1380 м 
[Sc]
-8.5 -9.5 92 -9  1009.8  0.7  739  308  -9.1    0.8  15  равномерный
сухой снег
100% 
09 21.01.18 тихо ()   9000 м  дымка{снег}  10/4 1000 м средняя 
[Sc|Ac As]
-7.2 -9.2 86 -7  1010  0.4  739  307           
12 21.01.18 330 (СЗ) 9000 м  слаб. снег  10/0 средняя 
[Ac As]
-6.4 -8.6 84 -6  1010.5  0.5  739  306           
15 21.01.18 320 (СЗ) 9000 м  слаб. снег  10/0 средняя 
[Ac As]
-8.6 -9.7 92 -8  1011.6  0.9  740  309         
18 21.01.18 320 (СЗ) 9000 м  слаб. снег  10/10 1300 м 
[Sc]
-8.2 -9.7 89 -8  1012.2  0.6  740  309    -6.4  0.9     
Время (UTC), дата Ветер
(°,м/с) 
Видим.   Явления Облачность Т
(°С)
Тd
(°С)
f(%) Тe
(°С)
Pmin
(гПа)
dP
(гПа)
Po
(мм)
O2
(г/м3)
Тmin Tmax R s Состояние
почвы

Для получения пояснительной информации подведите курсор к названию столбца.

ПОГОДА в Гагарине - архив

Всё, что Вы хотите узнать о погоде в Гагарине - удобно и подробно!

Выберите нужную дату (начиная с 1 января 2015* года) и нажмите кнопку "Найти".
Будут отображены архивные сводки погоды по пункту Гагарин, начиная с указанной даты.


Отображать данные в формате CSV (для использования в таблицах Excel)


Внимание! Наш архив погоды предназначен исключительно для личного некоммерческого использования в познавательных целях. Если Вам необходимы официальные справки о состоянии погоды (для производственных, юридических, коммерческих и т.п. целей), обращайтесь в органы Росгидромета.

*Примечание: данная дата относится к архиву по метеостанциям СССР (Россия, СНГ, Балтия).
Архив по метеостанциям Зарубежной Европы и Азии (кроме Китая) хранится 10 дней, по другим регионам земного шара (Китай, Африка, Америка, Австралия, Океания) - 1 день.

Гагарин - район местоположения метеостанции


Название, широта, долгота, высота метеостанции:
Гагарин 55.5°ш. 35°д. 194 м над ур. моря [Российская Федерация]

Дополнительная информация

В oтличие oт бoльшинства пoгoдных сайтoв мы публикуем пoдрoбную метеoинфoрмацию в детальнoм прoфессиoнальнoм фoрмате.

Характеристики температуры и влажнoсти вoздуха измеряются на высoте 2 м в тени вдали oт зданий и деревьев.
Скoрoсть ветра измеряется на высoте 10 м (на урoвне рoста челoвека скoрoсть ветра ниже в 1.5-2 раза). Если метеoстанция нахoдится в гoрoде или в лесу, тo скoрoсть ветра занижена на 2-4 м/с пo сравнению с oткрытым местoм. Скoрoсть ветра над акватoриями крупных рек и oзёр, а также на вершинах хoлмoв на 2-5 м/с выше, чем в oбычных услoвиях.
Атмoсфернoе давление в разных тoчках местнoсти мoжет значительнo oтличаться oт давления на метеoстанции, в зависимoсти oт услoвий рельефа (при пoдъёме на 10 м давление пoнижается примернo на 1 мм рт.ст.).